User: anonymous   Login
Location: ??????
(41.3164°N, 22.6615°E)
Time: 02:58:31
(UTC+00:00)
Language:

Okean 1 Rocket - Orbit

View from above orbital plane
View from above orbital plane
View from above satellite
View from above satellite

Ground track
Ground track

The orbit data is extracted from the following two-line orbital elements,

1 19275U 88056B   22020.59059478  .00000187  00000-0  19992-4 0  9994
2 19275  82.5148 199.9690 0021523  79.1693 281.1942 14.82837430790884
Epoch (UTC): 20 January 2022 14:10:27
Eccentricity: 0.0021523
inclination: 82.5148°
perigee height: 605 km
apogee height: 635 km
right ascension of ascending node: 199.9690°
argument of perigee: 79.1693°
revolutions per day: 14.82837430
mean anomaly at epoch: 281.1942°
orbit number at epoch: 79088

The dashed part of the orbit path shows where the satellite is in the earth's shadow,  

DLR